Content
SEND FEEDBACK

Daily
Averages
Monthly
Summary
United States of America

TRUESDALE, MISSOURI


Home > North America > United States > Missouri
Elevation: 843 feet     Latitude: 38 36N     Longitude: 091 12W

WEATHER
 
SELECT A DAY
Number of Records: 186,223;   Date Range: 1/1/95 - 8/12/14
 
SHARE

PRINT THIS DATA

[ ← Previous Day ]
WEATHER ALMANAC - JUNE 19, 2013
[ Next Day → ]
[ °C ]   °F
Weather ElementAverageHighLow
Temperature75.2 °F84.9 °F (2:53 pm)66 °F (3:53 am)
Dewpoint63.5 °F66.9 °F (9:53 pm)60.1 °F (3:53 pm)
Humidity69.4 %93 % (11:53 pm)43 % (3:53 pm)
Barometer30.03 in30.06 in (8:53 am)29.97 in (1:53 am)
Wind Speed3.1 mph8.1 mph (1:53 pm)
Weather ElementAverage
Visibility10 mi
Wind DirectionNE (42.1 °)

Weather ElementTotal
Precipitation---
Cooling Degree Days10.5 (Base 65)
Growing Degree Days25.5 (Base 50)
Averaged from 24 records on June 19, 2013
WEATHER CONDITIONS BREAKOUT
WIND DIRECTION BREAKOUT
WEATHER BY HOUR - JUNE 19, 2013
[ °C ]   °F
Local TimeTemperatureDewpointHumidityBarometerVisibilityWind DirectionWind SpeedGust SpeedPrecipitationEventsConditions
1:53 AM68.0 °F62.1 °F81 %29.97 in10.0 miCalmClear
2:53 AM68.0 °F63.0 °F84 %29.98 in10.0 miNorth (10°)5.8 mphClear
3:53 AM66.0 °F62.1 °F87 %29.99 in10.0 miNorth (10°)4.6 mphClear
4:53 AM66.0 °F63.0 °F90 %30.00 in10.0 miNNE (20°)4.6 mphClear
5:53 AM66.0 °F63.0 °F90 %30.02 in10.0 miNNE (20°)4.6 mphClear
6:53 AM68.0 °F64.0 °F87 %30.03 in10.0 miNE (40°)3.5 mphClear
7:01 AM68.0 °F64.4 °F88 %30.04 in10.0 miNE (40°)3.5 mphPartly Cloudy
7:53 AM71.1 °F64.0 °F78 %30.05 in10.0 miVariable3.5 mphClear
8:53 AM73.0 °F64.9 °F76 %30.06 in10.0 miENE (60°)4.6 mphClear
9:53 AM75.0 °F64.0 °F69 %30.06 in10.0 miVariable3.5 mphClear
10:53 AM79.0 °F64.9 °F62 %30.06 in10.0 miVariable4.6 mphClear
11:53 AM81.0 °F64.0 °F56 %30.06 in10.0 miNorth (360°)5.8 mphClear
12:53 PM82.9 °F62.1 °F49 %30.05 in10.0 miEast (90°)4.6 mphPartly Cloudy
1:53 PM84.0 °F63.0 °F49 %30.03 in10.0 miNNE (20°)8.1 mphPartly Cloudy
2:53 PM84.9 °F63.0 °F48 %30.03 in10.0 miEast (90°)5.8 mphScattered Clouds
3:53 PM84.9 °F60.1 °F43 %30.01 in10.0 miCalmScattered Clouds
4:53 PM84.9 °F62.1 °F46 %30.01 in10.0 miEast (80°)4.6 mphPartly Cloudy
5:53 PM84.0 °F62.1 °F47 %30.01 in10.0 miSouth (170°)3.5 mphClear
6:53 PM84.0 °F60.1 °F44 %30.01 in10.0 miCalmScattered Clouds
7:53 PM79.0 °F64.0 °F60 %30.01 in10.0 miCalmClear
8:53 PM75.9 °F64.0 °F67 %30.01 in10.0 miCalmClear
9:53 PM72.0 °F66.9 °F84 %30.04 in10.0 miCalmClear
10:53 PM71.1 °F66.9 °F87 %30.05 in10.0 miCalmClear
11:53 PM68.0 °F66.0 °F93 %30.05 in10.0 miCalmClear
Hourly data recorded from KCPS, located miles away from Truesdale, Missouri







STORIES FROM OUR PARTNERS